KF5WOE-13 Weather Reports


Display with metric or nautical units.
time (UTC)temp
F
wind
direction
speed
MPH
gust
MPH
rain 1hr
in
rain 24hr
in
rain mn
in
humidity
%
barometer
mb
20260509005816 140 93 0.0 0.0 0.00 0.03 0.03 1008.0
20260509005314 140 101 0.0 0.0 0.00 0.03 0.03 1008.1
20260509004813 140 107 0.0 0.0 0.00 0.03 0.03 1007.8
20260509004305 140 122 0.0 0.0 0.00 0.03 0.03 1008.0
20260509003803 140 122 0.0 0.0 0.00 0.03 0.03 1007.8
20260509003300 140 130 1.0 7.0 0.00 0.03 0.03 1007.7
20260509002757 140 132 0.0 0.0 0.00 0.03 0.03 1007.8
20260509002254 140 117 0.0 0.0 0.00 0.03 0.03 1007.6
20260509001752 140 114 2.0 7.0 0.00 0.03 0.03 1007.9
20260509001248 140 147 0.0 0.0 0.00 0.03 0.03 1007.9
20260509000746 140 138 0.0 0.0 0.00 0.03 0.03 1008.1
20260509000243 140 126 0.0 1.0 0.00 0.03 0.03 1008.1
20260508235739 140 86 0.0 0.0 0.00 0.03 0.03 1008.2
20260508235236 140 103 0.0 0.0 0.00 0.03 0.03 1008.0
20260508234734 140 95 0.0 0.0 0.00 0.03 0.03 1008.2
20260508234230 140 136 0.0 0.0 0.00 0.03 0.03 1008.1
20260508233729 140 120 0.0 0.0 0.00 0.03 0.03 1008.4
20260508233227 140 157 6.0 7.0 0.00 0.03 0.03 1008.2
20260508232724 140 108 0.0 0.0 0.00 0.03 0.03 1008.6
20260508232221 140 166 2.0 3.0 0.00 0.03 0.03 1008.5
20260508231719 140 126 0.0 0.0 0.00 0.03 0.03 1008.3
20260508231215 140 157 0.0 0.0 0.00 0.03 0.03 1008.3
20260508230712 140 93 1.0 1.0 0.00 0.03 0.03 1008.5
20260508230208 140 137 0.0 0.0 0.00 0.03 0.03 1008.5
20260508225706 140 198 1.0 2.0 0.00 0.03 0.03 1008.3
20260508225202 140 112 0.0 0.0 0.00 0.03 0.03 1008.3
20260508224700 140 189 6.0 7.0 0.00 0.03 0.03 1008.4
20260508224157 140 175 0.0 0.0 0.00 0.03 0.03 1008.3
20260508223655 140 128 0.0 2.0 0.00 0.03 0.03 1008.4
20260508223152 140 146 8.0 11.0 0.00 0.03 0.03 1008.2
20260508222649 140 157 8.0 10.0 0.00 0.03 0.03 1008.3
20260508222147 140 138 6.0 8.0 0.00 0.03 0.03 1008.4
20260508221643 140 140 4.0 7.0 0.00 0.03 0.03 1008.2
20260508221138 140 162 9.0 11.0 0.00 0.03 0.03 1008.3
20260508220636 140 166 8.0 9.0 0.00 0.03 0.03 1008.5
20260508220132 140 128 7.0 9.0 0.00 0.03 0.03 1008.6
20260508215628 140 152 5.0 9.0 0.00 0.03 0.03 1008.5
20260508215125 140 190 10.0 11.0 0.00 0.03 0.03 1008.6
20260508214622 140 149 9.0 10.0 0.00 0.03 0.03 1008.6
20260508214119 140 151 6.0 7.0 0.00 0.03 0.03 1008.8
20260508213616 140 114 11.0 14.0 0.00 0.03 0.03 1008.5
20260508213112 140 135 3.0 6.0 0.00 0.03 0.03 1008.9
20260508212609 140 149 7.0 10.0 0.00 0.03 0.03 1008.6
20260508212105 140 141 9.0 11.0 0.00 0.03 0.03 1008.8
20260508211600 140 107 5.0 8.0 0.00 0.03 0.03 1008.8
20260508211057 140 124 9.0 13.0 0.00 0.03 0.03 1009.0
20260508210554 140 168 5.0 7.0 0.00 0.03 0.03 1009.1
20260508210051 140 124 3.0 5.0 0.00 0.03 0.03 1008.9
20260508205548 140 108 7.0 10.0 0.00 0.03 0.03 1009.2
20260508205044 140 112 6.0 13.0 0.00 0.03 0.03 1009.5
20260508204541 140 186 2.0 5.0 0.00 0.03 0.03 1009.6
20260508204037 140 163 9.0 14.0 0.00 0.03 0.03 1009.4
20260508203533 140 120 0.0 1.0 0.00 0.03 0.03 1009.4
20260508203029 140 122 1.0 2.0 0.00 0.03 0.03 1009.6
20260508202526 140 91 5.0 8.0 0.00 0.03 0.03 1009.6
20260508202023 140 109 0.0 0.0 0.00 0.03 0.03 1009.7
20260508201520 140 137 7.0 8.0 0.00 0.03 0.03 1009.7
20260508201017 140 174 0.0 0.0 0.00 0.03 0.03 1009.6
20260508200514 140 154 2.0 3.0 0.00 0.03 0.03 1009.8
20260508200009 140 152 3.0 3.0 0.00 0.03 0.03 1010.1
20260508195506 140 191 7.0 10.0 0.00 0.03 0.03 1010.3
20260508195002 140 159 2.0 6.0 0.00 0.03 0.03 1010.0
20260508194500 140 129 6.0 8.0 0.00 0.03 0.03 1010.1
20260508193957 140 130 1.0 6.0 0.00 0.03 0.03 1010.3
20260508193453 140 111 2.0 5.0 0.00 0.03 0.03 1010.1
20260508192950 140 126 3.0 7.0 0.00 0.03 0.03 1010.5
20260508192446 140 137 6.0 7.0 0.00 0.03 0.03 1010.4
20260508191943 140 116 7.0 10.0 0.00 0.03 0.03 1010.6
20260508191441 140 150 6.0 9.0 0.00 0.03 0.03 1011.1
20260508190937 140 138 5.0 7.0 0.00 0.03 0.03 1011.3
20260508190435 140 153 6.0 7.0 0.00 0.03 0.03 1011.3
20260508185931 140 163 1.0 3.0 0.00 0.03 0.03 1011.5
20260508185428 140 191 0.0 0.0 0.00 0.03 0.03 1011.4
20260508184925 140 182 0.0 2.0 0.00 0.03 0.03 1011.2
20260508184423 140 126 5.0 8.0 0.00 0.03 0.03 1010.8
20260508183919 140 187 0.0 0.0 0.00 0.03 0.03 1011.2
20260508183416 140 190 9.0 10.0 0.00 0.03 0.03 1011.6
20260508182911 140 142 7.0 8.0 0.00 0.03 0.03 1011.5
20260508182409 140 109 7.0 8.0 0.00 0.03 0.03 1011.4
20260508181904 140 180 7.0 8.0 0.00 0.03 0.03 1011.6
20260508181401 140 172 5.0 7.0 0.00 0.03 0.03 1011.7
20260508180858 140 173 7.0 8.0 0.00 0.03 0.03 1011.8
20260508180355 140 119 7.0 11.0 0.00 0.03 0.03 1011.8
20260508175851 140 164 0.0 0.0 0.00 0.03 0.03 1012.0
20260508175348 140 153 3.0 9.0 0.00 0.03 0.03 1011.9
20260508174846 140 142 8.0 9.0 0.00 0.03 0.03 1011.9
20260508174343 140 152 6.0 7.0 0.00 0.03 0.03 1012.0
20260508173839 140 98 1.0 3.0 0.00 0.03 0.03 1012.0
20260508173337 140 173 0.0 0.0 0.00 0.03 0.03 1012.2
20260508172832 140 153 0.0 0.0 0.00 0.03 0.03 1012.4
20260508172329 140 175 0.0 0.0 0.00 0.03 0.03 1012.4
20260508171826 140 140 6.0 8.0 0.00 0.03 0.03 1012.6
20260508171322 140 153 0.0 0.0 0.00 0.03 0.03 1012.8
20260508170819 140 113 4.0 6.0 0.00 0.03 0.03 1012.9
20260508170317 140 176 0.0 0.0 0.00 0.03 0.03 1013.0
20260508165814 140 145 5.0 8.0 0.00 0.03 0.03 1013.2
20260508165311 140 144 2.0 6.0 0.00 0.03 0.03 1013.3
20260508164807 140 101 3.0 3.0 0.00 0.03 0.03 1013.0
20260508164304 140 162 5.0 7.0 0.00 0.03 0.03 1013.2
20260508163802 140 120 0.0 0.0 0.00 0.03 0.03 1013.1
20260508163259 140 108 0.0 0.0 0.00 0.03 0.03 1013.2
20260508162755 140 113 5.0 7.0 0.00 0.03 0.03 1013.2
20260508162252 140 178 0.0 0.0 0.00 0.03 0.03 1013.3
20260508161749 140 145 3.0 6.0 0.00 0.03 0.03 1013.4
20260508161246 140 111 6.0 8.0 0.00 0.03 0.03 1013.5
20260508160744 140 143 2.0 5.0 0.00 0.03 0.03 1013.4
20260508160242 140 135 0.0 0.0 0.00 0.03 0.03 1013.5
20260508155738 140 101 0.0 0.0 0.00 0.03 0.03 1013.6
20260508155235 140 161 0.0 0.0 0.00 0.03 0.03 1013.7
20260508154732 140 115 3.0 8.0 0.00 0.03 0.03 1013.8
20260508154230 140 170 0.0 0.0 0.00 0.03 0.03 1014.0
20260508153726 140 143 0.0 0.0 0.00 0.03 0.03 1013.9
20260508153223 140 194 3.0 5.0 0.00 0.03 0.03 1013.8
20260508152720 140 154 0.0 0.0 0.00 0.03 0.03 1013.8
20260508152215 140 121 3.0 6.0 0.00 0.03 0.03 1014.0
20260508151712 140 157 0.0 0.0 0.00 0.03 0.03 1014.1
20260508151209 140 161 0.0 0.0 0.00 0.03 0.03 1013.9
20260508150706 140 120 0.0 0.0 0.00 0.03 0.03 1013.8
20260508150202 140 161 0.0 0.0 0.00 0.03 0.03 1013.9
20260508145658 140 116 6.0 8.0 0.00 0.03 0.03 1014.4
20260508145154 140 128 4.0 8.0 0.00 0.03 0.03 1013.8
20260508144652 140 97 7.0 8.0 0.00 0.03 0.03 1013.9
20260508144150 140 85 0.0 0.0 0.00 0.03 0.03 1014.0
20260508143647 140 121 0.0 0.0 0.00 0.03 0.03 1014.0
20260508143144 140 191 0.0 0.0 0.00 0.03 0.03 1014.2
20260508142640 140 146 0.0 0.0 0.00 0.03 0.03 1014.6
20260508142137 140 133 0.0 0.0 0.00 0.03 0.03 1014.2
20260508141633 140 138 0.0 0.0 0.00 0.03 0.03 1014.6
20260508141131 140 106 0.0 0.0 0.00 0.03 0.03 1014.6
20260508140628 140 166 0.0 0.0 0.00 0.03 0.03 1014.5
20260508140125 140 118 0.0 0.0 0.00 0.03 0.03 1014.7
20260508135620 140 130 0.0 0.0 0.00 0.03 0.03 1014.8
20260508135117 140 168 0.0 0.0 0.00 0.03 0.03 1014.6
20260508134614 140 136 0.0 0.0 0.00 0.03 0.03 1014.8
20260508134111 140 177 0.0 0.0 0.00 0.03 0.03 1014.8
20260508133607 140 113 0.0 0.0 0.00 0.03 0.03 1014.8
20260508133105 140 129 0.0 0.0 0.00 0.03 0.03 1014.6
20260508132603 140 139 0.0 0.0 0.00 0.03 0.03 1014.7
20260508132059 140 148 0.0 0.0 0.00 0.03 0.03 1014.4
20260508131555 140 129 0.0 0.0 0.00 0.03 0.03 1014.6
20260508131052 140 124 0.0 0.0 0.00 0.03 0.03 1014.5
20260508130548 140 103 0.0 0.0 0.00 0.03 0.03 1014.8
20260508130045 140 144 0.0 0.0 0.00 0.03 0.03 1014.6
20260508125540 140 107 0.0 0.0 0.00 0.03 0.03 1014.4
20260508125038 140 148 0.0 0.0 0.00 0.03 0.03 1014.7
20260508124536 140 152 0.0 0.0 0.00 0.03 0.03 1014.6
20260508124033 140 121 0.0 0.0 0.00 0.03 0.03 1014.9
20260508123532 140 196 0.0 0.0 0.00 0.03 0.03 1014.9
20260508123028 140 195 0.0 0.0 0.00 0.03 0.03 1014.7
20260508122525 140 148 0.0 0.0 0.00 0.03 0.03 1014.4
20260508122022 140 146 0.0 0.0 0.00 0.03 0.03 1014.6
20260508121520 140 190 0.0 0.0 0.00 0.03 0.03 1014.6
20260508121018 140 178 0.0 0.0 0.00 0.03 0.03 1014.7
20260508120515 140 186 0.0 0.0 0.00 0.03 0.03 1014.6
20260508120013 140 147 0.0 0.0 0.00 0.03 0.03 1014.6
20260508115510 140 161 0.0 0.0 0.00 0.03 0.03 1014.5
20260508115007 140 199 0.0 0.0 0.00 0.03 0.03 1014.6
20260508114504 140 206 0.0 0.0 0.00 0.03 0.03 1014.8
20260508114000 140 170 0.0 0.0 0.00 0.03 0.03 1014.9
20260508113458 140 225 0.0 0.0 0.00 0.03 0.03 1014.5
20260508112955 140 225 0.0 0.0 0.00 0.03 0.03 1014.6
20260508112451 140 220 0.0 0.0 0.00 0.03 0.03 1014.5
20260508111948 140 158 0.0 0.0 0.00 0.03 0.03 1014.6
20260508111445 140 151 0.0 0.0 0.00 0.03 0.03 1014.7
20260508110942 140 175 0.0 0.0 0.00 0.03 0.03 1014.6
20260508110440 140 173 0.0 0.0 0.00 0.03 0.03 1014.8
20260508105939 140 178 0.0 0.0 0.00 0.03 0.03 1014.9
20260508105436 140 157 0.0 0.0 0.17 0.03 0.03 1014.6
20260508104933 140 196 0.0 0.0 0.12 0.02 0.02 1014.8
20260508104431 140 232 0.0 0.0 0.00 0.00 0.00 1015.0
20260508103927 140 134 0.0 0.0 0.00 0.00 0.00 1014.5
20260508103425 140 143 0.0 0.0 0.00 0.00 0.00 1014.6
20260508102921 140 202 0.0 0.0 0.00 0.00 0.00 1014.6
20260508102420 140 189 0.0 0.0 0.00 0.00 0.00 1014.7
20260508101917 140 217 0.0 0.0 0.00 0.00 0.00 1014.6
20260508101414 140 196 0.0 0.0 0.00 0.00 0.00 1014.6
20260508100911 140 173 0.0 0.0 0.00 0.00 0.00 1014.5
20260508100410 140 269 0.0 0.0 0.00 0.00 0.00 1014.6
20260508095911 140 233 0.0 0.0 0.00 0.00 0.00 1014.6
20260508095410 140 228 0.0 0.0 0.00 0.00 0.00 1014.5
20260508094905 140 162 0.0 0.0 0.00 0.00 0.00 1014.2
20260508094402 140 194 0.0 0.0 0.00 0.00 0.00 1014.4
20260508093859 140 178 0.0 0.0 0.00 0.00 0.00 1014.7
20260508093357 140 191 0.0 0.0 0.00 0.00 0.00 1014.6
20260508092854 140 160 0.0 0.0 0.00 0.00 0.00 1014.6
20260508092352 140 202 0.0 0.0 0.00 0.00 0.00 1014.8
20260508091850 140 210 0.0 0.0 0.00 0.00 0.00 1014.6
20260508091346 140 217 0.0 0.0 0.00 0.00 0.00 1014.9
20260508090844 140 253 0.0 0.0 0.00 0.00 0.00 1014.9
20260508090342 140 263 0.0 0.0 0.00 0.00 0.00 1014.5
20260508085837 140 272 0.0 0.0 0.00 0.00 0.00 1014.7
20260508085335 140 305 0.0 0.0 0.00 0.00 0.00 1014.6
20260508084831 140 277 0.0 0.0 0.00 0.00 0.00 1014.7
20260508084328 140 273 0.0 0.0 0.00 0.00 0.00 1014.7
20260508083826 140 287 0.0 0.0 0.00 0.00 0.00 1014.2
20260508083323 140 215 0.0 0.0 0.00 0.00 0.00 1014.4
20260508082823 140 166 0.0 0.0 0.00 0.00 0.00 1014.2
20260508082321 140 279 0.0 0.0 0.00 0.00 0.00 1014.4
20260508081818 140 279 0.0 0.0 0.00 0.00 0.00 1014.5
20260508081314 140 267 0.0 0.0 0.00 0.00 0.00 1014.5
20260508080812 140 276 0.0 0.0 0.00 0.00 0.00 1014.7
20260508080310 140 289 0.0 0.0 0.00 0.00 0.00 1014.5
20260508075806 140 278 0.0 0.0 0.00 0.00 0.00 1014.6
20260508075308 140 216 0.0 0.0 0.00 0.00 0.00 1014.7
20260508074801 140 128 0.0 0.0 0.00 0.00 0.00 1014.5
20260508074257 140 144 0.0 0.0 0.00 0.00 0.00 1014.6
20260508073754 140 243 0.0 0.0 0.00 0.00 0.00 1015.2
20260508073253 140 260 0.0 0.0 0.00 0.00 0.00 1015.1
20260508072748 140 261 0.0 0.0 0.00 0.00 0.00 1014.9
20260508072245 140 200 0.0 0.0 0.00 0.00 0.00 1015.2
20260508071742 140 185 0.0 0.0 0.00 0.00 0.00 1015.1
20260508071241 140 117 0.0 0.0 0.00 0.00 0.00 1015.3
20260508070738 140 110 0.0 0.0 0.00 0.00 0.00 1015.4
20260508070237 140 202 0.0 0.0 0.00 0.00 0.00 1015.5
20260508065733 140 131 0.0 0.0 0.00 0.00 0.00 1015.3
20260508065231 140 315 0.0 0.0 0.00 0.00 0.00 1015.6
20260508064728 140 313 0.0 0.0 0.00 0.00 0.00 1015.8
20260508064227 140 305 0.0 0.0 0.00 0.00 0.00 1016.2
20260508063724 140 307 0.0 0.0 0.00 0.00 0.00 1016.1
20260508063222 140 265 0.0 0.0 0.00 0.00 0.00 1015.8
20260508062719 140 264 0.0 0.0 0.00 0.00 0.00 1015.8
20260508062216 140 264 0.0 0.0 0.00 0.00 0.00 1015.7
20260508061713 140 273 0.0 0.0 0.00 0.00 0.00 1015.9
20260508061210 140 272 0.0 0.0 0.00 0.00 0.00 1015.8
20260508060706 140 273 0.0 0.0 0.00 0.00 0.00 1015.7
20260508060204 140 89 0.0 0.0 0.00 0.00 0.00 1015.6
20260508055659 140 89 0.0 0.0 0.00 0.00 0.00 1015.6
20260508055156 140 88 0.0 0.0 0.00 0.00 0.00 1015.4
20260508054653 140 201 0.0 0.0 0.00 0.00 0.00 1015.6
20260508054151 140 205 0.0 0.0 0.00 0.00 0.00 1015.7
20260508053648 140 196 0.0 0.0 0.00 0.00 0.00 1015.5
20260508053145 140 212 0.0 0.0 0.00 0.00 0.00 1015.9
20260508052643 140 200 0.0 0.0 0.00 0.00 0.00 1015.7
20260508052139 140 200 0.0 0.0 0.00 0.00 0.00 1015.9
20260508051636 140 199 0.0 0.0 0.00 0.00 0.00 1016.0
20260508051131 140 199 0.0 0.0 0.00 0.00 0.00 1016.2
20260508050627 140 170 0.0 0.0 0.00 0.00 0.00 1016.0
20260508050125 140 182 0.0 0.0 0.00 0.00 0.00 1016.4
20260508045621 140 209 0.0 0.0 0.00 0.00 0.00 1016.2
20260508045119 140 205 0.0 0.0 0.00 0.00 0.00 1016.4
20260508044616 140 203 0.0 0.0 0.00 0.00 0.00 1016.0
20260508044112 140 169 0.0 0.0 0.00 0.00 0.00 1015.9
20260508043608 140 186 0.0 0.0 0.00 0.00 0.00 1015.7
20260508043106 140 205 0.0 0.0 0.00 0.00 0.00 1016.0
20260508042603 140 225 0.0 0.0 0.00 0.00 0.00 1015.8
20260508042100 140 223 0.0 0.0 0.00 0.00 0.00 1016.0
20260508041556 140 201 0.0 0.0 0.00 0.00 0.00 1016.0
20260508041053 140 207 0.0 0.0 0.00 0.00 0.00 1015.9
20260508040549 140 200 0.0 0.0 0.00 0.00 0.00 1015.8
20260508040047 140 212 0.0 0.0 0.00 0.00 0.00 1015.9
20260508035544 140 216 0.0 0.0 0.00 0.00 0.00 1015.8
20260508035041 140 175 0.0 0.0 0.00 0.00 0.00 1016.0
20260508034538 140 145 0.0 0.0 0.00 0.00 0.00 1015.7
20260508034035 140 190 0.0 0.0 0.00 0.00 0.00 1015.6
20260508033533 140 207 0.0 0.0 0.00 0.00 0.00 1015.8
20260508033031 140 178 0.0 0.0 0.00 0.00 0.00 1015.4
20260508032527 140 208 0.0 0.0 0.00 0.00 0.00 1015.3
20260508032025 140 207 0.0 0.0 0.00 0.00 0.00 1015.5
20260508031522 140 197 0.0 0.0 0.00 0.00 0.00 1015.3
20260508031017 140 207 0.0 0.0 0.00 0.00 0.00 1015.4
20260508030514 140 207 0.0 0.0 0.00 0.00 0.00 1015.5
20260508030013 140 205 0.0 0.0 0.00 0.00 0.00 1015.3
20260508025508 140 207 0.0 0.0 0.00 0.00 0.00 1015.3
20260508025005 140 181 0.0 0.0 0.00 0.00 0.00 1015.0
20260508024501 140 207 0.0 0.0 0.00 0.00 0.00 1015.1
20260508023958 140 205 0.0 0.0 0.00 0.00 0.00 1015.2
20260508023455 140 176 0.0 0.0 0.00 0.00 0.00 1014.9
20260508022952 140 182 0.0 0.0 0.00 0.00 0.00 1015.0
20260508022448 140 163 0.0 0.0 0.00 0.00 0.00 1015.0
20260508021944 140 148 0.0 0.0 0.00 0.00 0.00 1014.8
20260508021441 140 155 0.0 0.0 0.00 0.00 0.00 1014.9
20260508020937 140 148 0.0 0.0 0.00 0.00 0.00 1014.8
20260508020435 140 160 0.0 0.0 0.00 0.00 0.00 1014.6
20260508015931 140 154 0.0 0.0 0.00 0.00 0.00 1014.8
20260508015429 140 172 0.0 0.0 0.00 0.00 0.00 1014.7
20260508014926 140 159 0.0 0.0 0.00 0.00 0.00 1014.7
20260508014423 140 140 0.0 0.0 0.00 0.00 0.00 1014.6
20260508013918 140 150 0.0 0.0 0.00 0.00 0.00 1014.6
20260508013414 140 159 0.0 0.0 0.00 0.00 0.00 1014.6
20260508012912 140 153 0.0 0.0 0.00 0.00 0.00 1014.8
20260508012409 140 108 0.0 0.0 0.00 0.00 0.00 1014.6
20260508011907 140 164 0.0 0.0 0.00 0.00 0.00 1014.7
20260508011404 140 174 0.0 0.0 0.00 0.00 0.00 1014.8
20260508010901 140 148 0.0 0.0 0.00 0.00 0.00 1014.7
20260508010358 140 137 0.0 0.0 0.00 0.00 0.00 1014.8